Lid_Strength_Index
10 9 9 8 7 5 4 3 3 2 2 2 2 2 2 1 1 1 0 -0 -0 -0 -0 0 1 1 2 2 3 2 3 4 4 4 4 3 3 3 2 2 3 3 3
11 9 9 8 7 4 3 3 3 2 1 1 1 1 1 1 1 1 0 0 -0 -0 -0 0 1 2 2 2 2 3 3 4 4 5 5 5 4 3 3 3 3 3 3
11 9 8 8 6 4 3 3 2 2 2 1 1 1 1 1 1 1 1 0 -0 -0 -0 0 1 1 1 2 3 3 3 4 4 4 4 6 7 5 4 4 4 4 4
8 7 6 5 3 4 4 3 2 1 1 2 2 2 2 3 2 1 1 1 0 0 -0 0 1 1 2 2 3 3 3 4 5 5 3 4 5 6 6 6 6 4 4
6 7 5 4 4 4 4 3 3 2 2 2 2 3 2 2 1 1 1 1 1 0 0 0 1 1 2 2 2 3 3 3 4 4 4 4 4 5 7 8 7 6 5
6 5 4 4 4 4 5 4 4 2 2 2 2 2 2 2 2 2 2 2 1 1 1 1 1 1 2 2 2 3 3 3 3 3 4 4 4 5 5 6 6 6 6
5 5 5 4 4 5 5 5 4 2 2 2 2 2 2 2 2 3 3 3 3 3 3 2 2 2 2 3 3 3 3 3 3 3 3 3 3 3 3 4 6 6 6
7 8 8 8 8 7 7 7 4 2 2 2 2 1 1 2 2 3 3 3 3 3 3 3 2 2 2 2 3 3 3 3 3 3 2 2 2 3 3 4 5 7 7
9 9 10 10 10 10 10 9 8 7 7 6 5 3 1 2 3 3 3 3 3 3 3 3 3 3 3 3 3 3 3 2 2 2 2 2 2 2 2 3 3 4 6
11 11 12 12 11 11 11 11 10 10 9 8 8 7 7 5 4 3 3 3 3 3 3 3 3 3 2 2 2 2 2 2 2 2 2 2 2 2 2 2 3 3 4
13 13 13 13 13 13 12 12 12 12 11 10 11 10 9 9 8 8 8 6 6 5 3 2 2 1 2 2 2 1 2 2 2 2 2 2 2 2 2 2 3 3 3
14 13 13 13 13 12 12 12 12 12 11 11 11 11 11 10 10 10 9 9 9 7 6 5 4 2 1 1 1 1 1 2 2 2 2 2 2 2 2 2 3 3 3
14 14 13 13 13 12 12 12 11 11 11 11 11 11 11 11 11 11 10 9 9 8 8 8 7 6 5 4 3 3 2 2 1 1 2 2 2 3 3 3 3 4 5
14 13 14 14 14 13 12 13 12 12 11 11 11 11 10 10 10 10 10 10 9 9 9 8 8 7 5 4 4 3 3 3 3 2 3 2 2 2 2 3 4 4 6
14 14 14 14 14 14 13 13 12 12 12 12 11 11 11 11 11 11 11 11 11 10 10 10 9 9 8 7 5 5 4 3 3 2 3 3 3 5 4 3 5 6 7
14 14 14 14 14 14 14 13 13 13 12 12 12 12 12 12 12 12 12 12 12 12 12 11 11 10 9 8 7 6 6 5 4 3 3 3 4 4 4 4 5 5 6
15 15 15 15 14 14 14 14 14 14 14 14 13 13 13 13 13 13 13 13 13 13 13 12 12 12 11 9 8 7 7 7 5 4 3 3 4 5 4 4 5 5 5
14 15 15 14 14 14 14 15 15 15 14 15 15 14 14 14 14 14 14 14 14 14 13 13 12 12 11 9 8 7 8 8 7 5 4 3 3 4 5 5 6 6 6
15 14 14 14 15 15 15 16 16 16 16 16 15 15 15 15 15 15 15 15 14 14 14 13 13 13 11 9 7 6 6 7 7 6 5 4 3 3 4 5 7 8 9
14 15 15 15 16 16 16 16 16 16 16 15 15 15 15 15 15 15 15 15 15 14 14 13 13 12 11 9 7 5 5 6 6 6 5 3 3 2 4 5 7 9 10
15 15 15 16 16 16 16 16 17 16 15 15 15 15 15 15 15 15 15 15 15 15 15 14 13 11 10 9 6 4 4 4 5 5 5 3 1 1 3 4 6 7 9
15 15 16 16 16 16 16 16 17 15 15 15 15 15 15 15 15 16 15 15 15 15 15 15 13 11 9 7 6 5 4 4 5 4 4 3 2 2 2 3 4 5 7
16 15 16 17 17 16 16 17 17 16 15 16 16 16 15 15 15 15 16 15 15 15 15 15 13 11 8 7 5 5 5 4 5 3 2 3 2 2 2 3 4 6 9
16 16 17 17 17 17 16 17 17 16 16 17 17 16 15 15 15 15 15 15 15 15 15 13 12 10 9 8 8 7 7 5 5 4 2 2 2 2 2 3 5 8 9
16 16 17 17 17 17 17 17 17 17 17 18 17 16 16 16 16 15 15 15 14 14 14 12 10 10 10 9 7 7 7 7 6 5 5 4 5 5 5 6 7 10 9
17 16 16 16 17 18 18 17 17 17 18 17 17 16 16 16 16 16 16 13 13 12 11 9 8 8 7 6 6 6 6 6 5 6 7 6 6 6 6 7 8 10 9